Orbital Elements at Epoch 2459200.5 (2020-Dec-17.0) TDB
Reference: JPL 12 (heliocentric ecliptic J2000)
Element | Value | Uncertainty (1-sigma) | Units |
e | .1526286089762473 | 6.6035e-08 | |
a | 2.182886296124084 | 1.4782e-08 | au |
q | 1.849715397193352 | 1.5057e-07 | au |
i | 5.594095726152502 | 6.582e-06 | deg |
node | 302.0869033767376 | 7.3919e-05 | deg |
peri | 100.1075381069801 | 8.057e-05 | deg |
M | 99.77143609112333 | 2.6577e-05 | deg |
tp | 2458874.025833964483 (2020-Jan-25.52583396) | 8.6522e-05 | TDB |
period | 1177.999479384488 3.23 | 1.1966e-05 3.276e-08 | d yr |
n | .3056028515293592 | 3.1043e-09 | deg/d |
Q | 2.516057195054816 | 1.7039e-08 | au |
|
| | Orbit Determination Parameters
Additional Information
|